[[{"header":{"parameterUnit":"m.s-1","parameterCategory":1,"la1":30.2992,"la2":30.254,"lo1":-89.0895,"lo2":-89.0443,"dy":0.0025,"dx":0.0025,"nx":19,"ny":19,"refTime":"2026-03-11T21:00:00:Z","depth":0,"parameterNumber":2,"parameterNumberName":"U-component_of_WINDS"},"data":[0,0,0,-3.2404,-3.2408,-3.2582,-3.2583,-3.2836,-3.2839,0,0,0,0,0,0,0,0,0,0,0,-3.237,-3.2372,-3.2404,-3.2408,-3.2582,-3.2583,-3.2836,-3.2839,0,0,0,0,0,0,0,0,0,0,0,-3.2369,-3.2371,-3.2374,-3.2409,-3.2582,-3.2583,-3.2835,-3.2693,0,0,0,0,0,0,0,0,0,0,-3.2519,-3.2504,-3.2371,-3.2374,-3.241,-3.2582,-3.2583,-3.2686,-3.2702,-3.277,0,-3.2834,0,-3.284,-3.2857,-3.2858,0,0,0,-3.2396,-3.2491,-3.2522,-3.2375,-3.2412,-3.2582,-3.25,-3.2695,-3.2713,-3.2792,-3.2837,-3.2846,-3.2844,-3.2859,-3.2861,-3.3291,-3.3293,0,0,-3.2387,-3.2411,-3.2509,-3.2534,-3.2508,-3.2495,-3.2506,-3.2705,-3.2757,-3.2838,-3.2851,-3.2849,-3.2861,-3.2863,-3.3288,-3.3291,0,0,0,-3.2367,-3.2405,-3.243,-3.2525,-3.2554,-3.25,-3.2513,-3.2748,-3.2754,-3.2854,-3.2852,-3.2863,-3.2866,-3.3285,-3.3289,-3.3443,0,0,0,-3.2361,-3.2393,-3.2427,-3.2443,-3.2551,-3.2653,-3.2552,-3.274,-3.2762,-3.285,-3.2863,-3.2869,-3.3282,-3.3287,-3.3432,-3.3513,0,0,0,-3.2353,-3.2392,-3.2423,-3.2444,-3.252,-3.2649,-3.2666,-3.2744,-3.2762,-3.2859,-3.287,-3.328,-3.3286,-3.3423,-3.3497,-3.3635,0,0,0,-3.2351,-3.2557,-3.2426,-3.2655,-3.2519,-3.2741,-3.2665,-3.2829,-3.293,-3.2864,-3.3283,-3.3289,-3.342,-3.3488,-3.3625,-3.3758,-3.3814,0,0,-3.2625,-3.2591,-3.2723,-3.2611,-3.2863,-3.2712,-3.2988,-3.3058,-3.3045,-3.321,-3.322,-3.3436,-3.3496,-3.3633,-3.4116,-3.4161,0,0,0,-3.2819,-3.2915,-3.2976,-3.3073,-3.3129,-3.3186,-3.321,-3.3236,-3.3374,-3.3134,-3.352,-3.3555,-3.3634,-3.3697,-3.3735,-3.3803,-3.3318,-3.3317,-3.3316,-3.3245,-3.3215,-3.3433,-3.3425,-3.352,-3.3542,-3.3617,-3.3655,-3.3599,-3.369,-3.3741,-3.4037,-3.4111,-3.414,-3.4211,-3.3805,-3.3805,-3.3806,-3.3806,-3.3646,-3.3779,-3.3696,-3.3879,-3.3847,-3.4,-3.4029,-3.3984,-3.4123,-3.3997,-3.4065,-3.3933,-3.419,-3.4251,-3.3818,-3.3816,-3.3814,-3.3813,-3.3812,-3.3925,-3.3984,-3.4009,-3.4146,-3.4254,-3.4237,-3.4375,-3.434,-3.4308,-3.4376,-3.4427,-3.4424,-3.442,-3.4401,-3.4402,-3.4403,-3.4404,-3.4405,-3.4406,-3.4207,-3.4231,-3.435,-3.4427,-3.4484,-3.4555,-3.4577,-3.4633,-3.4686,-3.465,-3.4651,-3.4588,-3.4219,-3.4129,-3.4422,-3.4419,-3.4417,-3.4415,-3.4414,-3.4633,-3.453,-3.4715,-3.4773,-3.4859,-3.497,-3.4921,-3.5038,-3.5079,-3.5148,-3.5068,-3.48,-3.4764,-3.4733,-3.466,-3.5071,-3.5071,-3.5071,-3.5072,-3.4872,-3.4848,-3.503,-3.5124,-3.5211,-3.5186,-3.5398,-3.5417,-3.5421,-3.5444,-3.5378,-3.5275,-3.5245,-3.5227,-3.5186,-3.5117,-3.5636,-3.5637,-3.5637,-3.5134,-3.5117,-3.5304,-3.5304,-3.5369,-3.5425,-3.5624,-3.5737,-3.5719,-3.5659,-3.5463,-3.5439,-3.5273,-3.5219,-3.5161,-3.5097,-3.4969,0,0]},{"header":{"parameterUnit":"m.s-1","parameterCategory":1,"la1":30.2992,"la2":30.254,"lo1":-89.0895,"lo2":-89.0443,"dy":0.0025,"dx":0.0025,"nx":19,"ny":19,"refTime":"2026-03-11T21:00:00:Z","depth":0,"parameterNumber":3,"parameterNumberName":"V-component_of_WINDS"},"data":[0,0,0,-5.9999,-6.0003,-6.0202,-6.0203,-6.0474,-6.0476,0,0,0,0,0,0,0,0,0,0,0,-5.9952,-5.9954,-5.9998,-6.0004,-6.0202,-6.0203,-6.0473,-6.0476,0,0,0,0,0,0,0,0,0,0,0,-5.9951,-5.9954,-5.9957,-6.0004,-6.0202,-6.0203,-6.0473,-6.0316,0,0,0,0,0,0,0,0,0,0,-6.012,-6.009,-5.9953,-5.9957,-6.0006,-6.0202,-6.0203,-6.0308,-6.0326,-6.0391,0,-6.0455,0,-6.047,-6.0496,-6.0497,0,0,0,-5.9993,-6.0076,-6.0118,-5.9957,-6.0008,-6.0202,-6.011,-6.0318,-6.0338,-6.0415,-6.0459,-6.0469,-6.0475,-6.0497,-6.0499,-6.0916,-6.0918,0,0,-5.9982,-5.9994,-6.0104,-6.0132,-6.0105,-6.0103,-6.0116,-6.033,-6.0378,-6.046,-6.0475,-6.0479,-6.0499,-6.0502,-6.0914,-6.0917,0,0,0,-5.9958,-5.9987,-6.0024,-6.0121,-6.0156,-6.0109,-6.0124,-6.0368,-6.0379,-6.0477,-6.0483,-6.0501,-6.0505,-6.0911,-6.0915,-6.1048,0,0,0,-5.995,-5.9973,-6.002,-6.0029,-6.0152,-6.0265,-6.0158,-6.0364,-6.0388,-6.0481,-6.0501,-6.0507,-6.0908,-6.0913,-6.1038,-6.1109,0,0,0,-5.9935,-5.997,-6.0004,-6.0029,-6.0115,-6.0261,-6.0284,-6.0369,-6.0392,-6.0497,-6.0508,-6.0907,-6.0912,-6.103,-6.1095,-6.1222,0,0,0,-5.9921,-6.0118,-6.0006,-6.0228,-6.0114,-6.0343,-6.0283,-6.0452,-6.0558,-6.0503,-6.0909,-6.0915,-6.1027,-6.1086,-6.1213,-6.1333,-6.1383,0,0,-6.0177,-6.015,-6.0279,-6.0185,-6.0437,-6.0311,-6.0581,-6.0666,-6.0663,-6.0831,-6.0841,-6.1041,-6.1094,-6.122,-6.1662,-6.1702,0,0,0,-6.0364,-6.0458,-6.0521,-6.0624,-6.0694,-6.0759,-6.0801,-6.0832,-6.0974,-6.0753,-6.1121,-6.1152,-6.1225,-6.1282,-6.1316,-6.1379,-6.0941,-6.094,-6.094,-6.0744,-6.0731,-6.0944,-6.0956,-6.1055,-6.1096,-6.1175,-6.1223,-6.118,-6.1267,-6.1318,-6.1587,-6.1654,-6.1679,-6.1745,-6.1378,-6.1379,-6.1379,-6.138,-6.1118,-6.1248,-6.1187,-6.1372,-6.1356,-6.151,-6.1556,-6.152,-6.166,-6.1548,-6.1612,-6.1493,-6.1724,-6.178,-6.139,-6.1388,-6.1387,-6.1386,-6.1385,-6.1366,-6.1426,-6.1461,-6.1607,-6.172,-6.1723,-6.186,-6.184,-6.1822,-6.1886,-6.1936,-6.1934,-6.193,-6.1911,-6.1912,-6.1913,-6.1914,-6.1914,-6.1915,-6.161,-6.1645,-6.1765,-6.1856,-6.1918,-6.1997,-6.2038,-6.2098,-6.2159,-6.2133,-6.2134,-6.2082,-6.1749,-6.1666,-6.1929,-6.1927,-6.1925,-6.1924,-6.1923,-6.1996,-6.1905,-6.2091,-6.2154,-6.2257,-6.237,-6.2342,-6.2465,-6.2511,-6.258,-6.2514,-6.227,-6.2241,-6.2213,-6.2145,-6.2516,-6.2516,-6.2516,-6.2516,-6.2206,-6.2189,-6.2374,-6.2475,-6.2571,-6.2565,-6.2772,-6.2805,-6.2824,-6.2851,-6.2794,-6.2701,-6.2673,-6.266,-6.2623,-6.2559,-6.3027,-6.3027,-6.3028,-6.2443,-6.2434,-6.2616,-6.2636,-6.2714,-6.2781,-6.2975,-6.3091,-6.3094,-6.3048,-6.2872,-6.285,-6.27,-6.2651,-6.2603,-6.2546,-6.2427,0,0]}]]